Tracking 29892 objects as of 21-Nov-2024
HD Live streaming from Space Station
objects crossing your sky now

ONEWEB-0213

Track ONEWEB-0213 now!
10-day predictions
ONEWEB-0213 is classified as:


NORAD ID: 48790
Int'l Code: 2021-045Z
Perigee: 1,207.5 km
Apogee: 1,210.3 km
Inclination: 87.9 °
Period: 109.5 minutes
Semi major axis: 7579 km
RCS: Unknown
Launch date: May 28, 2021
Source: United Kingdom (UK)
Launch site: VOSTOCHNY COSMODROME (VOSTO)
Your satellite tracking list
Your tracking list is empty




NASA's NSSDC Master Catalog

Two Line Element Set (TLE):
1 48790U 21045Z   24325.60850260  .00000013  00000-0  17130-5 0  9994
2 48790  87.9096  13.3839 0001877  86.5579 273.5766 13.15546138169020
Source of the keplerian elements: AFSPC